Location: Unspecified
(49.9820°N, 20.4363°E)
Time: 14:42:00
(UTC+02:00)

ISS - Pass Details

Date: 23 May 2018
Orbit: 402 x 407 km, 51.6° (Epoch: 22 May)

Event Time Altitude Azimuth Distance (km) Brightness Sun altitude
Rises 00:37:08 0° 279° (W) 2,320 0.1 -19.5°
Reaches altitude 10° 00:39:14 10° 282° (WNW) 1,460 -0.9 -19.5°
Maximum altitude 00:42:29 65° 5° (N) 447 -3.5 -19.5°
Drops below altitude 10° 00:45:44 10° 89° (E) 1,457 -1.0 -19.5°
Sets 00:47:50 0° 92° (E) 2,316 0.0 -19.4°
